Location: L�Ave Maria
(50.7161°N, 1.5911°E)
Time: 13:15:19
(UTC+00:00)

Cosmos 1842 Rocket - Pass Details

Date: 10 July 2020
Orbit: 604 x 635 km, 82.5° (Epoch: 06 August)

Event Time Altitude Azimuth Distance (km) Brightness Sun altitude
Rises 21:28:53 0° 347° (NNW) 2,883 8.4 -10.0°
Reaches altitude 10° 21:31:08 10° 344° (NNW) 1,971 7.5 -10.2°
Maximum altitude 21:35:26 62° 264° (W) 686 3.9 -10.6°
Drops below altitude 10° 21:39:41 10° 184° (S) 1,949 5.6 -11.0°
Enters shadow 21:39:46 10° 184° (S) 1,981 5.7 -11.0°
